Home > Weather > Brampton > Past weeks

Flag for Canada Weather for the Past 2 Weeks in Brampton, Ontario, Canada

Now
50 °F

Light rain. Mostly cloudy.


Feels Like: 47 °F
Forecast: 43 / 48 °F
Wind: 8 mph from East

Location: Toronto Pearson International Airport

Current Time: May 1, 2016 at 4:06:13 AM

Latest Report: May 1, 2016 at 3:00 AM


Visibility: 15 mi

Pressure: 30.04 "Hg

Humidity: 58%

Dew Point: 36 °F

Location of BramptonLocation

Historic Weather in Brampton — Graph

°F

Brampton Temperature Yesterday

Maximum temperature yesterday: 57 °F (at 3:00 PM)
Minimum temperature yesterday: 37 °F (at 4:00 AM)
Average temperature yesterday: 49 °F

High & Low Weather Summary for the Past Weeks

 TemperatureHumidityPressure
High77 °F (Apr 18, 6:00 PM)94% (Apr 22, 12:00 AM)30.49 "Hg (Apr 22, 12:00 AM)
Low34 °F (Apr 24, 6:00 AM)13% (Apr 20, 5:00 PM)29.76 "Hg (Apr 26, 5:00 AM)
Average48 °F49%30.13 "Hg
* Reported Apr 16 2:00 AM — May 1 2:00 AM, Brampton, Weather by CustomWeather, © 2016

Note: Actual official high and low records may vary slightly from our data, if they occured in-between our weather recording intervals... More about our weather records

Advertising

Brampton Weather History for the Previous 24 Hours

Scroll right to see more
 ConditionsComfort  
Time TempWeatherWind HumidityBarometerVisibility
2:00 AM
Sun, May 1
50 °FOvercast.12 mph47%30.06 "Hg15 mi
1:00 AM52 °FMostly cloudy.10 mph44%30.07 "Hg15 mi
12:00 AM52 °FOvercast.8 mph44%30.09 "Hg15 mi
11:00 PM
Sat, Apr 30
52 °FOvercast.6 mph41%30.11 "Hg15 mi
10:00 PM52 °FMostly cloudy.5 mph38%30.12 "Hg15 mi
9:00 PM52 °FOvercast.5 mph35%30.13 "Hg15 mi
8:00 PM52 °FPartly sunny.9 mph32%30.14 "Hg15 mi
7:00 PM54 °FPartly sunny.10 mph33%30.14 "Hg15 mi
6:00 PM55 °FMostly cloudy.10 mph31%30.14 "Hg15 mi
5:00 PM57 °FHigh level clouds.8 mph36%30.15 "Hg15 mi
4:00 PM57 °FPartly sunny.13 mph36%30.15 "Hg15 mi
3:00 PM57 °FPartly sunny.12 mph33%30.18 "Hg15 mi
2:00 PM55 °FPartly sunny.13 mph31%30.20 "Hg15 mi
1:00 PM55 °FPartly sunny.13 mph31%30.19 "Hg15 mi
12:00 PM55 °FPartly sunny.8 mph31%30.21 "Hg15 mi
11:00 AM54 °FPassing clouds.10 mph33%30.23 "Hg15 mi
10:00 AM52 °FPassing clouds.7 mph38%30.22 "Hg15 mi
9:00 AM50 °FPassing clouds.8 mph43%30.22 "Hg15 mi
8:00 AM43 °FPassing clouds.5 mph57%30.22 "Hg15 mi
7:00 AM37 °FPassing clouds.3 mph65%30.21 "Hg15 mi
6:00 AM37 °FPassing clouds.5 mph65%30.21 "Hg15 mi
5:00 AM37 °FClear.No wind60%30.19 "Hg15 mi
4:00 AM37 °FClear.6 mph60%30.18 "Hg15 mi
Weather by CustomWeather, © 2016

See weather overviewHow to use our weather pages